[[{"header":{"parameterUnit":"m.s-1","parameterCategory":1,"la1":30.2991,"la2":30.254,"lo1":-89.0895,"lo2":-89.0444,"dy":0.0017,"dx":0.0017,"nx":28,"ny":28,"refTime":"2023-07-25T21:00:00:Z","depth":0,"parameterNumber":2,"parameterNumberName":"U-component_of_WINDS"},"data":[0,0,0,0,0,0,0,0,0,0,0,0,0,0,0,0,0,0,0,0,0,0,0,0,0,0,0,0,0,0,0,0,0,0,0,0,0,0,0,0,0,0,0,0,0,0,0,0,0,0,0,0,0,0,0,0,0,0,0.4747,0.4749,0,0.4901,0.4903,0.4904,0.4959,0.4959,0.4958,0.4957,0.5117,0.5122,0.5127,0,0,0,0,0,0,0,0,0,0,0,0,0,0.45,0.4504,0.4747,0.4749,0.4751,0.4901,0.4903,0.4905,0.4959,0.4958,0.4958,0.4957,0.5116,0.5121,0.5127,0,0,0,0,0,0,0,0,0,0,0,0,0,0.4626,0.4506,0.4747,0.4796,0.4802,0.49,0.4903,0.4905,0.4959,0.4958,0.4958,0.4957,0.5114,0.5121,0.5128,0.5189,0,0,0.515,0.5153,0,0,0,0,0,0,0,0,0.4619,0.4635,0.4787,0.4793,0.48,0.491,0.4874,0.5001,0.496,0.49,0.4957,0.4956,0.5049,0.5061,0.5092,0.5197,0.5203,0.515,0.5155,0.5158,0.516,0,0,0,0,0,0,0,0.461,0.4629,0.4808,0.4789,0.4797,0.481,0.4827,0.4899,0.4977,0.4905,0.4909,0.4926,0.5052,0.5085,0.5096,0.5206,0.515,0.5157,0.5161,0.5164,0.5366,0.5367,0,0,0,0,0,0,0.4593,0.4621,0.4803,0.4813,0.4705,0.4815,0.4834,0.4875,0.4977,0.4991,0.4927,0.4928,0.5073,0.5088,0.5102,0.5179,0.5158,0.5164,0.5169,0.5365,0.5366,0.5367,0,0,0,0,0,0,0.4587,0.4609,0.4797,0.4718,0.4743,0.4821,0.4866,0.4879,0.4912,0.4993,0.5008,0.4946,0.5073,0.5092,0.5166,0.5186,0.5168,0.5174,0.5363,0.5365,0.5366,0.5334,0,0,0,0,0,0,0.458,0.4606,0.4631,0.4718,0.4747,0.4858,0.4867,0.4882,0.4924,0.4927,0.5015,0.5029,0.5074,0.5155,0.5173,0.5195,0.518,0.5362,0.5364,0.5366,0.5334,0.5335,0.5335,0,0,0,0,0,0.4571,0.4616,0.4632,0.4653,0.4779,0.4859,0.4876,0.4926,0.4925,0.495,0.5002,0.5026,0.518,0.5162,0.5183,0.5208,0.5361,0.5363,0.5366,0.5334,0.5335,0.5335,0,0,0,0,0,0,0.453,0.4629,0.4647,0.4722,0.4781,0.4868,0.4901,0.4926,0.4988,0.4988,0.5049,0.5068,0.5137,0.518,0.5158,0.5271,0.5272,0.5279,0.5241,0.5242,0.5243,0.5231,0.5186,0,0,0,0,0,0.453,0.4587,0.467,0.4728,0.4757,0.4823,0.4861,0.4894,0.4959,0.4984,0.5042,0.5104,0.5167,0.5207,0.5269,0.534,0.536,0.5367,0.5367,0.5367,0.5373,0.5412,0.5416,0.5375,0.5375,0.5375,0,0,0.453,0.4591,0.4623,0.4721,0.4771,0.4829,0.4845,0.4905,0.4948,0.4994,0.5067,0.5111,0.5185,0.5257,0.5292,0.5295,0.5388,0.537,0.537,0.5375,0.5415,0.5418,0.5422,0.5376,0.5376,0.5376,0,0,0.4559,0.4611,0.4664,0.4714,0.4789,0.4833,0.4845,0.4928,0.4959,0.5033,0.5068,0.5119,0.5226,0.5276,0.5316,0.5361,0.5385,0.5379,0.5382,0.542,0.5423,0.5426,0.5441,0.5446,0.5384,0.5384,0.5384,0,0.455,0.4637,0.4689,0.4747,0.4788,0.4831,0.4884,0.493,0.5022,0.505,0.5051,0.5184,0.5237,0.532,0.5331,0.5362,0.5378,0.537,0.5418,0.5422,0.5426,0.5441,0.5446,0.5383,0.5383,0.5383,0.5383,0,0.4621,0.4681,0.4715,0.4801,0.4847,0.4902,0.4962,0.5001,0.503,0.5073,0.5147,0.5211,0.5286,0.5308,0.5338,0.5396,0.5395,0.5406,0.5409,0.5427,0.5443,0.5449,0.5381,0.5381,0.5382,0.5382,0,0,0.4631,0.4743,0.4754,0.4793,0.4878,0.4926,0.4982,0.5054,0.5086,0.5148,0.5196,0.5284,0.5295,0.5339,0.5375,0.5407,0.5437,0.5415,0.5418,0.5416,0.5504,0.5494,0.55,0.5453,0.5455,0.5456,0.5497,0,0.4671,0.4774,0.482,0.4903,0.4958,0.4997,0.5047,0.5104,0.5145,0.5198,0.5244,0.5305,0.5315,0.5342,0.5376,0.5426,0.5455,0.5424,0.5499,0.5501,0.5479,0.5508,0.5499,0.5535,0.5503,0.5505,0.5505,0,0.4732,0.4791,0.4878,0.4954,0.4979,0.5023,0.5091,0.5141,0.5206,0.5234,0.5282,0.5315,0.5376,0.5373,0.5457,0.5434,0.5468,0.5497,0.5499,0.5509,0.5504,0.5517,0.5548,0.5553,0.5515,0.5514,0.5514,0,0.4728,0.4831,0.4895,0.4927,0.5018,0.5048,0.5087,0.5151,0.5191,0.5251,0.5277,0.5343,0.5379,0.543,0.548,0.5473,0.5558,0.556,0.5583,0.5581,0.5599,0.5598,0.5635,0.5621,0.5621,0.5621,0.562,0,0.4768,0.4819,0.4895,0.4935,0.4993,0.5046,0.5102,0.5144,0.52,0.5249,0.5288,0.5332,0.5395,0.5448,0.5487,0.555,0.5566,0.559,0.56,0.5587,0.5583,0.561,0.5608,0.5622,0.5622,0.5621,0.5621,0,0.4775,0.4828,0.4901,0.498,0.5001,0.504,0.5108,0.5148,0.519,0.5251,0.5268,0.5334,0.5398,0.5452,0.5536,0.5563,0.5627,0.5639,0.5605,0.561,0.5629,0.5626,0.5685,0.5695,0.5673,0.5673,0.5674,0,0.4796,0.4837,0.4919,0.4954,0.4992,0.5048,0.5088,0.5141,0.5181,0.5256,0.5287,0.5353,0.5408,0.5508,0.5564,0.5627,0.5641,0.5657,0.5651,0.5636,0.5641,0.5638,0.5641,0.5657,0.5657,0.5657,0.5657,0,0.4829,0.4852,0.4908,0.4973,0.5019,0.5072,0.5127,0.5153,0.5216,0.5258,0.5323,0.5366,0.545,0.5515,0.5585,0.5625,0.5652,0.5658,0.5667,0.5654,0.5632,0.5643,0.5605,0.5657,0.5657,0.5657,0.5657,0.5657,0.4844,0.488,0.4944,0.5004,0.505,0.51,0.5141,0.5187,0.5241,0.5314,0.5342,0.5407,0.5469,0.5565,0.5606,0.5657,0.5662,0.5674,0.5677,0.568,0.5677,0.5623,0.567,0.5671,0.5671,0.5671,0.5671,0,0.4877,0.492,0.4974,0.5049,0.5096,0.5115,0.5176,0.5214,0.5271,0.5326,0.5379,0.5453,0.5515,0.5574,0.564,0.567,0.5683,0.5685,0.5683,0.5692,0.567,0.5656,0.5673,0.5673,0.5673,0.5673,0.5673,0.5673,0.4901,0.4963,0.4994,0.508,0.5122,0.5186,0.5218,0.5264,0.5308,0.5388,0.5439,0.5477,0.5534,0.5603,0.5661,0.5677,0.5699,0.5697,0.5716,0.5695,0.5694,0.5693,0.568,0.5702,0.5702,0.5734,0.5734,0.5734]},{"header":{"parameterUnit":"m.s-1","parameterCategory":1,"la1":30.2991,"la2":30.254,"lo1":-89.0895,"lo2":-89.0444,"dy":0.0017,"dx":0.0017,"nx":28,"ny":28,"refTime":"2023-07-25T21:00:00:Z","depth":0,"parameterNumber":3,"parameterNumberName":"V-component_of_WINDS"},"data":[0,0,0,0,0,0,0,0,0,0,0,0,0,0,0,0,0,0,0,0,0,0,0,0,0,0,0,0,0,0,0,0,0,0,0,0,0,0,0,0,0,0,0,0,0,0,0,0,0,0,0,0,0,0,0,0,0,0,3.9084,3.9083,0,3.9014,3.9013,3.9012,3.9012,3.9013,3.9014,3.9015,3.8933,3.893,3.8927,0,0,0,0,0,0,0,0,0,0,0,0,0,3.921,3.9208,3.9084,3.9083,3.9082,3.9014,3.9013,3.9012,3.9012,3.9013,3.9014,3.9015,3.8934,3.8931,3.8927,0,0,0,0,0,0,0,0,0,0,0,0,0,3.9149,3.9207,3.9084,3.9074,3.9073,3.9014,3.9013,3.9012,3.9011,3.9013,3.9014,3.9016,3.8936,3.8931,3.8927,3.8871,0,0,3.8913,3.8911,0,0,0,0,0,0,0,0,3.9152,3.9144,3.9077,3.9075,3.9073,3.9023,3.9028,3.8964,3.9011,3.9034,3.9015,3.9016,3.8962,3.8955,3.8938,3.8867,3.8863,3.8912,3.891,3.8908,3.8906,0,0,0,0,0,0,0,3.9157,3.9147,3.9056,3.9076,3.9073,3.9071,3.9063,3.9015,3.8991,3.9032,3.9032,3.9025,3.8961,3.8943,3.8936,3.8862,3.8913,3.8908,3.8906,3.8904,3.874,3.8739,0,0,0,0,0,0,3.9164,3.9151,3.9058,3.9054,3.9117,3.9067,3.9059,3.9038,3.8991,3.8986,3.9023,3.9025,3.895,3.8942,3.8934,3.8865,3.8908,3.8903,3.8901,3.8742,3.874,3.8738,0,0,0,0,0,0,3.9167,3.9156,3.9061,3.9102,3.909,3.9064,3.9039,3.9035,3.9018,3.8985,3.8979,3.901,3.8951,3.894,3.8887,3.8862,3.8901,3.8897,3.8744,3.8741,3.8739,3.8726,0,0,0,0,0,0,3.917,3.9157,3.9137,3.9102,3.9088,3.9018,3.9038,3.9033,3.9011,3.9012,3.8971,3.8965,3.8951,3.8894,3.8882,3.8856,3.8894,3.8746,3.8743,3.874,3.8729,3.8724,3.8719,0,0,0,0,0,3.9175,3.9134,3.9136,3.9125,3.9063,3.9016,3.9008,3.8995,3.9009,3.8987,3.8966,3.8966,3.8867,3.8888,3.8875,3.8847,3.8747,3.8744,3.874,3.8731,3.8725,3.8719,0,0,0,0,0,0,3.9164,3.913,3.9131,3.9079,3.9051,3.9017,3.8989,3.8989,3.8955,3.8957,3.894,3.893,3.8877,3.8857,3.8881,3.8791,3.8808,3.8802,3.8806,3.8799,3.8795,3.88,3.889,0,0,0,0,0,3.9156,3.9124,3.9094,3.905,3.9037,3.9016,3.8995,3.8988,3.8957,3.8944,3.8919,3.8887,3.8848,3.8823,3.8785,3.8726,3.8716,3.8701,3.8696,3.8692,3.8686,3.8653,3.8645,3.8726,3.8726,3.8726,0,0,3.9138,3.9115,3.9095,3.9048,3.9025,3.899,3.9005,3.8967,3.894,3.8937,3.8886,3.8867,3.8829,3.8773,3.8747,3.8755,3.8662,3.8688,3.8685,3.8681,3.8648,3.8641,3.8634,3.8724,3.8724,3.8725,0,0,3.9087,3.9067,3.9029,3.9007,3.8974,3.896,3.8951,3.8917,3.8905,3.8855,3.8852,3.8818,3.8752,3.8726,3.8703,3.8644,3.8642,3.8632,3.8606,3.8574,3.8568,3.8562,3.8539,3.8532,3.8626,3.8626,3.8626,0,3.9067,3.9017,3.9008,3.897,3.8949,3.8949,3.8908,3.8886,3.8841,3.8825,3.8836,3.8754,3.8728,3.8666,3.8651,3.8634,3.8621,3.8636,3.857,3.8564,3.8558,3.8537,3.8528,3.8625,3.8625,3.8625,3.8626,0,3.8994,3.8959,3.8931,3.8892,3.8867,3.8828,3.8811,3.8787,3.8782,3.8766,3.8714,3.8684,3.8641,3.8626,3.8619,3.8562,3.8568,3.8574,3.8591,3.855,3.8529,3.8521,3.8624,3.8624,3.8624,3.8625,0,0,3.8932,3.889,3.888,3.8862,3.8827,3.8798,3.8758,3.8719,3.8698,3.8667,3.8632,3.8577,3.8583,3.8558,3.8549,3.8521,3.8474,3.853,3.8529,3.852,3.8407,3.8402,3.8393,3.8474,3.8472,3.8471,3.841,0,3.8876,3.8809,3.8801,3.874,3.8706,3.8706,3.8671,3.8644,3.8629,3.8596,3.8577,3.8539,3.8551,3.8535,3.8508,3.8486,3.8451,3.849,3.8438,3.8436,3.8446,3.8382,3.8376,3.8321,3.8402,3.8401,3.84,0,3.8802,3.8773,3.871,3.868,3.8665,3.8635,3.8598,3.8568,3.8536,3.8527,3.85,3.8494,3.8451,3.8471,3.8409,3.8436,3.8414,3.84,3.8398,3.8391,3.8415,3.8373,3.8303,3.8294,3.8387,3.8388,3.8389,0,3.8763,3.8707,3.8662,3.8647,3.8611,3.8589,3.8572,3.8543,3.852,3.8487,3.8472,3.8433,3.8411,3.8381,3.8364,3.8381,3.8303,3.8322,3.8292,3.8292,3.8274,3.8275,3.8198,3.8262,3.8262,3.8262,3.8262,0,3.8701,3.8661,3.8644,3.8616,3.8572,3.8562,3.8517,3.8501,3.8475,3.8442,3.8438,3.8407,3.8388,3.8352,3.8339,3.8289,3.8279,3.8269,3.8265,3.8268,3.827,3.8253,3.8256,3.826,3.826,3.8261,3.8261,0,3.8648,3.8635,3.8586,3.8557,3.8549,3.8517,3.8491,3.8462,3.8448,3.8406,3.8396,3.8372,3.8331,3.8312,3.826,3.8251,3.8194,3.8193,3.8205,3.8204,3.8174,3.8177,3.8083,3.8069,3.8143,3.8142,3.8142,0,3.8609,3.8579,3.8548,3.8528,3.8511,3.8477,3.8455,3.8443,3.842,3.8383,3.8358,3.8318,3.8284,3.8218,3.8194,3.8154,3.8152,3.8122,3.8146,3.815,3.815,3.8152,3.8148,3.8117,3.8116,3.8116,3.8115,0,3.854,3.8536,3.8505,3.8473,3.8447,3.842,3.8393,3.8375,3.8359,3.8332,3.8292,3.8266,3.8215,3.8174,3.8133,3.8112,3.811,3.8108,3.8099,3.8101,3.8109,3.8103,3.8192,3.811,3.8111,3.8111,3.8111,3.8111,3.8492,3.8466,3.8441,3.8406,3.8386,3.8361,3.8334,3.8317,3.8284,3.8244,3.8238,3.8195,3.8163,3.8109,3.8087,3.8051,3.8058,3.8044,3.804,3.8037,3.8035,3.8116,3.8043,3.8043,3.8043,3.8043,3.8044,0,3.8423,3.8407,3.8376,3.834,3.8313,3.8318,3.8288,3.8264,3.8227,3.82,3.8168,3.8121,3.8082,3.8056,3.8016,3.7992,3.7989,3.7981,3.7982,3.7977,3.8032,3.8044,3.7984,3.7984,3.7984,3.7984,3.7984,3.7984,3.8383,3.8339,3.8332,3.8277,3.826,3.8221,3.8203,3.818,3.8158,3.8107,3.8076,3.8061,3.8033,3.7991,3.7954,3.7947,3.7931,3.7923,3.7916,3.7967,3.7973,3.7979,3.799,3.792,3.792,3.7864,3.7864,3.7863]}]]